[{"OBJECT_NAME":"NIMIQ 2","OBJECT_ID":"2002-062A","EPOCH":"2026-09-11T23:42:03.487104","MEAN_MOTION":1.00267752,"ECCENTRICITY":0.00056051,"INCLINATION":9.6425,"RA_OF_ASC_NODE":55.9501,"ARG_OF_PERICENTER":112.5035,"MEAN_ANOMALY":68.8471,"EPHEMERIS_TYPE":0,"CLASSIFICATION_TYPE":"U","NORAD_CAT_ID":27632,"ELEMENT_SET_NO":999,"REV_AT_EPOCH":4505,"BSTAR":0,"MEAN_MOTION_DOT":-8e-7,"MEAN_MOTION_DDOT":0},{"OBJECT_NAME":"ANIK F2","OBJECT_ID":"2004-027A","EPOCH":"2026-09-12T04:49:26.510592","MEAN_MOTION":1.00272063,"ECCENTRICITY":0.0003043,"INCLINATION":3.5067,"RA_OF_ASC_NODE":78.289,"ARG_OF_PERICENTER":80.2304,"MEAN_ANOMALY":153.9489,"EPHEMERIS_TYPE":0,"CLASSIFICATION_TYPE":"U","NORAD_CAT_ID":28378,"ELEMENT_SET_NO":999,"REV_AT_EPOCH":4213,"BSTAR":0,"MEAN_MOTION_DOT":-6.3e-7,"MEAN_MOTION_DDOT":0},{"OBJECT_NAME":"ANIK F1R","OBJECT_ID":"2005-036A","EPOCH":"2026-09-12T03:07:51.252384","MEAN_MOTION":1.00272129,"ECCENTRICITY":0.00028526,"INCLINATION":4.5299,"RA_OF_ASC_NODE":75.4505,"ARG_OF_PERICENTER":55.7698,"MEAN_ANOMALY":159.5863,"EPHEMERIS_TYPE":0,"CLASSIFICATION_TYPE":"U","NORAD_CAT_ID":28868,"ELEMENT_SET_NO":999,"REV_AT_EPOCH":4732,"BSTAR":0,"MEAN_MOTION_DOT":-8.8e-7,"MEAN_MOTION_DDOT":0},{"OBJECT_NAME":"ANIK F3","OBJECT_ID":"2007-009A","EPOCH":"2026-09-12T06:29:54.377664","MEAN_MOTION":1.00272397,"ECCENTRICITY":0.00025894,"INCLINATION":1.4169,"RA_OF_ASC_NODE":82.6721,"ARG_OF_PERICENTER":87.3498,"MEAN_ANOMALY":160.0264,"EPHEMERIS_TYPE":0,"CLASSIFICATION_TYPE":"U","NORAD_CAT_ID":31102,"ELEMENT_SET_NO":999,"REV_AT_EPOCH":4743,"BSTAR":0,"MEAN_MOTION_DOT":-1.5e-7,"MEAN_MOTION_DDOT":0},{"OBJECT_NAME":"NIMIQ 4","OBJECT_ID":"2008-044A","EPOCH":"2026-09-12T06:40:23.372256","MEAN_MOTION":1.00271914,"ECCENTRICITY":0.00019507,"INCLINATION":0.0201,"RA_OF_ASC_NODE":122.6288,"ARG_OF_PERICENTER":42.6558,"MEAN_ANOMALY":204.1282,"EPHEMERIS_TYPE":0,"CLASSIFICATION_TYPE":"U","NORAD_CAT_ID":33373,"ELEMENT_SET_NO":999,"REV_AT_EPOCH":6585,"BSTAR":0,"MEAN_MOTION_DOT":-0.00000235,"MEAN_MOTION_DDOT":0},{"OBJECT_NAME":"TELSTAR 11N","OBJECT_ID":"2009-009A","EPOCH":"2026-09-12T06:52:59.664288","MEAN_MOTION":1.002727,"ECCENTRICITY":0.0002451,"INCLINATION":0.0351,"RA_OF_ASC_NODE":260.2004,"ARG_OF_PERICENTER":266.0396,"MEAN_ANOMALY":250.7554,"EPHEMERIS_TYPE":0,"CLASSIFICATION_TYPE":"U","NORAD_CAT_ID":34111,"ELEMENT_SET_NO":999,"REV_AT_EPOCH":4711,"BSTAR":0,"MEAN_MOTION_DOT":-0.00000265,"MEAN_MOTION_DDOT":0},{"OBJECT_NAME":"TERRESTAR-1","OBJECT_ID":"2009-035A","EPOCH":"2026-09-12T01:24:08.697600","MEAN_MOTION":1.00273599,"ECCENTRICITY":0.0002427,"INCLINATION":5.2229,"RA_OF_ASC_NODE":48.6676,"ARG_OF_PERICENTER":104.7058,"MEAN_ANOMALY":107.7541,"EPHEMERIS_TYPE":0,"CLASSIFICATION_TYPE":"U","NORAD_CAT_ID":35496,"ELEMENT_SET_NO":999,"REV_AT_EPOCH":6300,"BSTAR":0,"MEAN_MOTION_DOT":-6.9e-7,"MEAN_MOTION_DDOT":0},{"OBJECT_NAME":"NIMIQ 5","OBJECT_ID":"2009-050A","EPOCH":"2026-09-12T03:17:42.807264","MEAN_MOTION":1.0027055,"ECCENTRICITY":0.00026503,"INCLINATION":0.0332,"RA_OF_ASC_NODE":257.8035,"ARG_OF_PERICENTER":274.2219,"MEAN_ANOMALY":155.8486,"EPHEMERIS_TYPE":0,"CLASSIFICATION_TYPE":"U","NORAD_CAT_ID":35873,"ELEMENT_SET_NO":999,"REV_AT_EPOCH":6221,"BSTAR":0,"MEAN_MOTION_DOT":-0.00000272,"MEAN_MOTION_DDOT":0},{"OBJECT_NAME":"SKYTERRA 1","OBJECT_ID":"2010-061A","EPOCH":"2026-09-11T23:44:18.271968","MEAN_MOTION":1.00271927,"ECCENTRICITY":0.00007331,"INCLINATION":5.3076,"RA_OF_ASC_NODE":50.6525,"ARG_OF_PERICENTER":131.0162,"MEAN_ANOMALY":64.1305,"EPHEMERIS_TYPE":0,"CLASSIFICATION_TYPE":"U","NORAD_CAT_ID":37218,"ELEMENT_SET_NO":999,"REV_AT_EPOCH":5806,"BSTAR":0,"MEAN_MOTION_DOT":-0.00000131,"MEAN_MOTION_DDOT":0},{"OBJECT_NAME":"NIMIQ 6","OBJECT_ID":"2012-026A","EPOCH":"2026-09-12T06:37:46.124256","MEAN_MOTION":1.00272477,"ECCENTRICITY":0.00027904,"INCLINATION":0.0393,"RA_OF_ASC_NODE":281.002,"ARG_OF_PERICENTER":251.0341,"MEAN_ANOMALY":187.5924,"EPHEMERIS_TYPE":0,"CLASSIFICATION_TYPE":"U","NORAD_CAT_ID":38342,"ELEMENT_SET_NO":999,"REV_AT_EPOCH":5129,"BSTAR":0,"MEAN_MOTION_DOT":-0.00000188,"MEAN_MOTION_DDOT":0},{"OBJECT_NAME":"ANIK G1","OBJECT_ID":"2013-014A","EPOCH":"2026-09-12T06:19:38.851968","MEAN_MOTION":1.00271993,"ECCENTRICITY":0.00027343,"INCLINATION":0.0297,"RA_OF_ASC_NODE":254.0436,"ARG_OF_PERICENTER":292.1957,"MEAN_ANOMALY":152.645,"EPHEMERIS_TYPE":0,"CLASSIFICATION_TYPE":"U","NORAD_CAT_ID":39127,"ELEMENT_SET_NO":999,"REV_AT_EPOCH":4912,"BSTAR":0,"MEAN_MOTION_DOT":-8.9e-7,"MEAN_MOTION_DDOT":0},{"OBJECT_NAME":"TELSTAR 12V","OBJECT_ID":"2015-068A","EPOCH":"2026-09-12T06:59:29.042304","MEAN_MOTION":1.00271936,"ECCENTRICITY":0.00020925,"INCLINATION":0.0212,"RA_OF_ASC_NODE":133.9287,"ARG_OF_PERICENTER":36.5038,"MEAN_ANOMALY":270.7398,"EPHEMERIS_TYPE":0,"CLASSIFICATION_TYPE":"U","NORAD_CAT_ID":41036,"ELEMENT_SET_NO":999,"REV_AT_EPOCH":3949,"BSTAR":0,"MEAN_MOTION_DOT":-0.00000133,"MEAN_MOTION_DDOT":0},{"OBJECT_NAME":"VIASAT-2","OBJECT_ID":"2017-029A","EPOCH":"2026-09-11T23:53:09.922272","MEAN_MOTION":1.00271054,"ECCENTRICITY":0.00005917,"INCLINATION":0.0211,"RA_OF_ASC_NODE":240.3001,"ARG_OF_PERICENTER":262.7443,"MEAN_ANOMALY":136.3102,"EPHEMERIS_TYPE":0,"CLASSIFICATION_TYPE":"U","NORAD_CAT_ID":42740,"ELEMENT_SET_NO":999,"REV_AT_EPOCH":3406,"BSTAR":0,"MEAN_MOTION_DOT":-0.00000281,"MEAN_MOTION_DDOT":0},{"OBJECT_NAME":"LEO 1 (LEO VANTAGE 1)","OBJECT_ID":"2018-004C","EPOCH":"2026-09-12T05:11:18.158496","MEAN_MOTION":14.68260364,"ECCENTRICITY":0.03486488,"INCLINATION":99.2409,"RA_OF_ASC_NODE":184.9031,"ARG_OF_PERICENTER":172.0279,"MEAN_ANOMALY":188.6671,"EPHEMERIS_TYPE":0,"CLASSIFICATION_TYPE":"U","NORAD_CAT_ID":43113,"ELEMENT_SET_NO":999,"REV_AT_EPOCH":45025,"BSTAR":0.000099857208,"MEAN_MOTION_DOT":0.00001375,"MEAN_MOTION_DDOT":0},{"OBJECT_NAME":"TELSTAR 19V","OBJECT_ID":"2018-059A","EPOCH":"2026-09-12T03:20:27.544416","MEAN_MOTION":1.00270737,"ECCENTRICITY":0.0002628,"INCLINATION":0.01,"RA_OF_ASC_NODE":168.8143,"ARG_OF_PERICENTER":5.2319,"MEAN_ANOMALY":164.2085,"EPHEMERIS_TYPE":0,"CLASSIFICATION_TYPE":"U","NORAD_CAT_ID":43562,"ELEMENT_SET_NO":999,"REV_AT_EPOCH":3001,"BSTAR":0,"MEAN_MOTION_DOT":-0.00000295,"MEAN_MOTION_DDOT":0},{"OBJECT_NAME":"TELSTAR 18V","OBJECT_ID":"2018-069A","EPOCH":"2026-09-12T06:00:27.203040","MEAN_MOTION":1.00271884,"ECCENTRICITY":0.00017835,"INCLINATION":0.0244,"RA_OF_ASC_NODE":250.6212,"ARG_OF_PERICENTER":283.1481,"MEAN_ANOMALY":45.6184,"EPHEMERIS_TYPE":0,"CLASSIFICATION_TYPE":"U","NORAD_CAT_ID":43611,"ELEMENT_SET_NO":999,"REV_AT_EPOCH":2951,"BSTAR":0,"MEAN_MOTION_DOT":-0.00000308,"MEAN_MOTION_DDOT":0},{"OBJECT_NAME":"AMOS-17","OBJECT_ID":"2019-050A","EPOCH":"2026-09-12T05:25:53.018112","MEAN_MOTION":1.00275465,"ECCENTRICITY":0.00016894,"INCLINATION":0.0325,"RA_OF_ASC_NODE":13.4122,"ARG_OF_PERICENTER":164.753,"MEAN_ANOMALY":271.5808,"EPHEMERIS_TYPE":0,"CLASSIFICATION_TYPE":"U","NORAD_CAT_ID":44479,"ELEMENT_SET_NO":999,"REV_AT_EPOCH":2605,"BSTAR":0,"MEAN_MOTION_DOT":9.5e-7,"MEAN_MOTION_DDOT":0}]